Location: Franzen
(48.6167°N, 15.3833°E)
Time: 12:01:55
(UTC+00:00)

Cosmos 405 Rocket - Pass Details

Date: 22 April 2021
Orbit: 489 x 553 km, 81.3° (Epoch: 16 May)

Event Time Altitude Azimuth Distance (km) Brightness Sun altitude
Rises 18:35:13 0° 351° (N) 2,726 6.9 -6.1°
Reaches altitude 10° 18:37:27 10° 355° (N) 1,819 5.9 -6.4°
Maximum altitude 18:41:24 59° 76° (ENE) 627 2.9 -7.0°
Drops below altitude 10° 18:45:15 10° 156° (SSE) 1,769 4.9 -7.6°
Enters shadow 18:46:35 - 159° (SSE) 2,313 5.5 -7.8°
